Weather History for KLIT - September, 2013

Change the Weather History Date:

Sunday, September 8, 2013

  Actual Average Record
Temperature  
Mean Temperature 87 °F 77 °F  
Max Temperature 101 °F 87 °F 99 °F (2013)
Min Temperature 72 °F 67 °F 53 °F (1988)
Degree Days  
Heating Degree Days 0 0  
Month to date heating degree days 0 0  
Since 1 July heating degree days 0 0  
Cooling Degree Days 22 12  
Month to date cooling degree days 142 108  
Year to date cooling degree days 1848 1885  
Growing Degree Days 36 (Base 50)    
Moisture  
Dew Point 65 °F    
Average Humidity 56    
Maximum Humidity 84    
Minimum Humidity 27    
Precipitation  
Precipitation 0.00 in 0.11 in 1.97 in (1985)
Month to date precipitation T 0.85  
Year to date precipitation 34.60 32.37  
Snow  
Snow 0.00 in 0.00 in - ()
Month to date snowfall 0.0 0.0  
Since 1 July snowfall 0.0 0.0  
Since 1 September snowfall 0.0 0.0  
Snow Depth 0.00 in    
Sea Level Pressure  
Sea Level Pressure 29.94 in    
Wind  
Wind Speed 5 mph (South)    
Max Wind Speed 14 mph    
Max Gust Speed 17 mph    
Visibility 10 miles    
Events      
T = Trace of Precipitation, MM = Missing Value Source: NWS Daily Summary

Daily Weather History Graph

Daily Weather History Graph

Search for Another Location

Airport or City:

Trip Planner

Search our weather history database for the weather conditions in past years. The results will help you decide how hot, cold, wet, or windy it might be!

Date:

Astronomy

Sep. 08, 2013 Rise Set
Actual Time 6:47 AM CDT 7:25 PM CDT
Civil Twilight 6:21 AM CDT 7:50 PM CDT
Nautical Twilight 5:51 AM CDT 8:20 PM CDT
Astronomical Twilight 5:20 AM CDT 8:51 PM CDT
Moon 9:54 AM CDT (9/8) 9:12 PM CDT (9/8)
Length of Visible Light 13h 29m
Length of Day
12h 38m
Waxing Crescent, 11% of the Moon is Illuminated
Sep 8
Waxing Crescent
Sep 12
First Quarter
Sep 19
Full
Sep 26
Last Quarter
Oct 4
New

Hourly Weather History & Observations

Time (CDT) Temp. Heat Index Dew Point Humidity Pressure Visibility Wind Dir Wind Speed Gust Speed Precip Events Conditions
12:53 AM 77.0 °F - 66.9 °F 71% 29.97 in 10.0 mi SSE 3.5 mph - N/A   Clear
1:53 AM 78.1 °F - 66.9 °F 68% 29.97 in 10.0 mi Calm Calm - N/A   Clear
2:53 AM 75.0 °F - 66.9 °F 76% 29.95 in 10.0 mi Calm Calm - N/A   Clear
3:53 AM 73.9 °F - 68.0 °F 82% 29.95 in 10.0 mi Calm Calm - N/A   Clear
4:53 AM 72.0 °F - 66.9 °F 84% 29.95 in 10.0 mi Calm Calm - N/A   Clear
5:53 AM 73.9 °F - 64.9 °F 73% 29.96 in 10.0 mi West 3.5 mph - N/A   Clear
6:53 AM 72.0 °F - 66.0 °F 81% 29.98 in 7.0 mi SW 3.5 mph - N/A   Clear
7:53 AM 75.0 °F - 66.9 °F 76% 29.97 in 10.0 mi Calm Calm - N/A   Clear
8:53 AM 80.1 °F 82.3 °F 66.9 °F 64% 29.98 in 10.0 mi SW 6.9 mph - N/A   Clear
9:53 AM 86.0 °F 88.2 °F 66.0 °F 51% 29.99 in 10.0 mi Calm Calm - N/A   Clear
10:53 AM 93.9 °F 96.1 °F 64.9 °F 38% 29.99 in 10.0 mi NW 9.2 mph - N/A   Clear
11:53 AM 97.0 °F 98.3 °F 63.0 °F 32% 29.98 in 10.0 mi NW 6.9 mph - N/A   Partly Cloudy
12:53 PM 99.0 °F 99.5 °F 61.0 °F 28% 29.96 in 10.0 mi NNW 6.9 mph - N/A   Scattered Clouds
1:53 PM 99.0 °F 99.5 °F 60.1 °F 28% 29.94 in 10.0 mi East 4.6 mph - N/A   Mostly Cloudy
2:53 PM 100.0 °F 101.2 °F 61.0 °F 28% 29.92 in 10.0 mi ESE 6.9 mph - N/A   Mostly Cloudy
3:53 PM 99.0 °F 99.5 °F 60.1 °F 28% 29.91 in 10.0 mi East 3.5 mph - N/A   Mostly Cloudy
4:53 PM 98.1 °F 98.1 °F 60.1 °F 28% 29.89 in 10.0 mi SSE 4.6 mph - N/A   Mostly Cloudy
5:53 PM 97.0 °F 96.9 °F 60.1 °F 29% 29.88 in 10.0 mi SSE 8.1 mph - N/A   Mostly Cloudy
6:53 PM 91.9 °F 94.1 °F 64.9 °F 41% 29.88 in 10.0 mi SSE 4.6 mph - N/A   Mostly Cloudy
7:53 PM 87.1 °F 89.2 °F 66.0 °F 49% 29.90 in 10.0 mi SSE 5.8 mph - N/A   Mostly Cloudy
8:53 PM 84.9 °F 87.1 °F 66.0 °F 53% 29.91 in 10.0 mi South 8.1 mph - N/A   Mostly Cloudy
9:53 PM 82.9 °F 85.4 °F 66.9 °F 58% 29.93 in 10.0 mi South 6.9 mph - N/A   Scattered Clouds
10:53 PM 82.9 °F 85.4 °F 66.9 °F 58% 29.94 in 10.0 mi South 6.9 mph - N/A   Mostly Cloudy
11:53 PM 81.0 °F 83.0 °F 66.0 °F 60% 29.94 in 10.0 mi South 6.9 mph - N/A   Mostly Cloudy